Time,TemperatureF,DewpointF,PressureIn,WindDirection,WindDirectionDegrees,WindSpeedMPH,WindSpeedGustMPH,Humidity,HourlyPrecipIn,Conditions,Clouds,dailyrainin,SoftwareType,DateUTC
2013-10-11 00:04:00,57.2,36.6,29.74,North,0,0.0,0.0,46,0.00,,---,0.00,VWS V13.01,2013-10-11 04:04:00,
2013-10-11 00:09:00,57.0,36.5,29.74,North,0,0.0,0.0,46,0.00,,---,0.00,VWS V13.01,2013-10-11 04:09:00,
2013-10-11 00:14:00,57.0,36.5,29.71,North,0,0.0,0.0,46,0.00,,---,0.00,VWS V13.01,2013-10-11 04:14:00,
2013-10-11 00:19:00,57.0,36.5,29.71,North,0,0.0,0.0,46,0.00,,---,0.00,VWS V13.01,2013-10-11 04:19:00,
2013-10-11 00:24:00,56.8,36.8,29.71,North,0,0.0,0.0,47,0.00,,---,0.00,VWS V13.01,2013-10-11 04:24:00,
2013-10-11 00:29:00,56.8,36.8,29.71,North,0,0.0,0.0,47,0.00,,---,0.00,VWS V13.01,2013-10-11 04:29:00,
2013-10-11 00:34:00,56.8,36.8,29.71,North,0,0.0,0.0,47,0.00,,---,0.00,VWS V13.01,2013-10-11 04:34:00,
2013-10-11 00:39:00,56.7,36.7,29.71,North,0,0.0,0.0,47,0.00,,---,0.00,VWS V13.01,2013-10-11 04:39:00,
2013-10-11 00:49:00,56.5,37.0,29.71,North,0,0.0,0.0,48,0.00,,---,0.00,VWS V13.01,2013-10-11 04:49:00,
2013-10-11 00:54:00,56.5,37.0,29.71,North,0,0.0,0.0,48,0.00,,---,0.00,VWS V13.01,2013-10-11 04:54:00,
2013-10-11 00:59:00,56.3,36.9,29.71,North,0,0.0,0.0,48,0.00,,---,0.00,VWS V13.01,2013-10-11 04:59:00,
2013-10-11 01:09:00,56.5,37.0,29.71,North,0,0.0,0.0,48,0.00,,---,0.00,VWS V13.01,2013-10-11 05:09:00,
2013-10-11 01:14:00,56.5,37.0,29.71,North,0,0.0,0.0,48,0.00,,---,0.00,VWS V13.01,2013-10-11 05:14:00,
2013-10-11 01:19:00,56.3,36.9,29.71,North,0,0.0,0.0,48,0.00,,---,0.00,VWS V13.01,2013-10-11 05:19:00,
2013-10-11 01:24:00,56.3,37.4,29.71,North,0,0.0,0.0,49,0.00,,---,0.00,VWS V13.01,2013-10-11 05:24:00,
2013-10-11 01:29:00,56.3,37.4,29.71,North,0,0.0,0.0,49,0.00,,---,0.00,VWS V13.01,2013-10-11 05:29:00,
2013-10-11 01:34:00,56.3,36.9,29.71,North,0,0.0,0.0,48,0.00,,---,0.00,VWS V13.01,2013-10-11 05:34:00,
2013-10-11 01:39:00,56.3,37.4,29.71,North,0,0.0,0.0,49,0.00,,---,0.00,VWS V13.01,2013-10-11 05:39:00,
2013-10-11 01:49:00,56.5,37.0,29.71,North,0,0.0,0.0,48,0.00,,---,0.00,VWS V13.01,2013-10-11 05:49:00,
2013-10-11 01:54:00,56.5,37.0,29.71,North,0,0.0,0.0,48,0.00,,---,0.00,VWS V13.01,2013-10-11 05:54:00,
2013-10-11 01:59:00,56.3,36.9,29.71,North,0,0.0,0.0,48,0.00,,---,0.00,VWS V13.01,2013-10-11 05:59:00,
2013-10-11 02:04:00,56.3,36.9,29.71,North,0,0.0,0.0,48,0.00,,---,0.00,VWS V13.01,2013-10-11 06:04:00,
2013-10-11 02:09:00,56.3,36.9,29.71,North,0,0.0,0.0,48,0.00,,---,0.00,VWS V13.01,2013-10-11 06:09:00,
2013-10-11 02:19:00,56.1,37.2,29.71,North,0,0.0,0.0,49,0.00,,---,0.00,VWS V13.01,2013-10-11 06:19:00,
2013-10-11 02:24:00,56.1,37.2,29.71,North,0,0.0,0.0,49,0.00,,---,0.00,VWS V13.01,2013-10-11 06:24:00,
2013-10-11 02:29:00,56.1,37.2,29.68,North,0,0.0,0.0,49,0.00,,---,0.00,VWS V13.01,2013-10-11 06:29:00,
2013-10-11 02:39:00,56.1,37.8,29.68,North,0,0.0,0.0,50,0.00,,---,0.00,VWS V13.01,2013-10-11 06:39:00,
2013-10-11 02:44:00,56.1,37.8,29.68,North,0,0.0,0.0,50,0.00,,---,0.00,VWS V13.01,2013-10-11 06:44:00,
2013-10-11 02:49:00,56.1,37.8,29.68,North,0,0.0,0.0,50,0.00,,---,0.00,VWS V13.01,2013-10-11 06:49:00,
2013-10-11 02:54:00,55.9,37.6,29.68,North,0,0.0,0.0,50,0.00,,---,0.00,VWS V13.01,2013-10-11 06:54:00,
2013-10-11 02:59:00,55.9,37.6,29.68,North,0,0.0,0.0,50,0.00,,---,0.00,VWS V13.01,2013-10-11 06:59:00,
2013-10-11 03:04:00,55.9,37.6,29.68,North,0,0.0,0.0,50,0.00,,---,0.00,VWS V13.01,2013-10-11 07:04:00,
2013-10-11 03:09:00,56.1,37.8,29.68,North,0,0.0,0.0,50,0.00,,---,0.00,VWS V13.01,2013-10-11 07:09:00,
2013-10-11 03:14:00,56.1,37.8,29.68,North,0,0.0,0.0,50,0.00,,---,0.00,VWS V13.01,2013-10-11 07:14:00,
2013-10-11 03:19:00,56.1,37.8,29.68,North,0,0.0,0.0,50,0.00,,---,0.00,VWS V13.01,2013-10-11 07:19:00,
2013-10-11 03:24:00,56.1,37.8,29.68,North,0,0.0,0.0,50,0.00,,---,0.00,VWS V13.01,2013-10-11 07:24:00,
2013-10-11 03:34:00,56.1,37.8,29.68,North,0,0.0,0.0,50,0.00,,---,0.00,VWS V13.01,2013-10-11 07:34:00,
2013-10-11 03:39:00,56.1,37.8,29.68,North,0,0.0,0.0,50,0.00,,---,0.00,VWS V13.01,2013-10-11 07:39:00,
2013-10-11 03:44:00,56.1,37.2,29.68,North,0,0.0,0.0,49,0.00,,---,0.00,VWS V13.01,2013-10-11 07:44:00,
2013-10-11 03:49:00,56.3,37.4,29.68,North,0,0.0,0.0,49,0.00,,---,0.00,VWS V13.01,2013-10-11 07:49:00,
2013-10-11 03:54:00,56.5,37.6,29.68,North,0,0.0,0.0,49,0.00,,---,0.00,VWS V13.01,2013-10-11 07:54:00,
2013-10-11 03:59:00,56.5,37.6,29.68,North,0,0.0,0.0,49,0.00,,---,0.00,VWS V13.01,2013-10-11 07:59:00,
2013-10-11 04:04:00,56.5,37.0,29.68,North,0,0.0,0.0,48,0.00,,---,0.00,VWS V13.01,2013-10-11 08:04:00,
2013-10-11 04:09:00,56.5,37.0,29.68,North,0,0.0,0.0,48,0.00,,---,0.00,VWS V13.01,2013-10-11 08:09:00,
2013-10-11 04:14:00,56.3,37.4,29.68,North,0,0.0,0.0,49,0.00,,---,0.00,VWS V13.01,2013-10-11 08:14:00,
2013-10-11 04:24:00,56.5,37.0,29.68,North,0,0.0,0.0,48,0.00,,---,0.00,VWS V13.01,2013-10-11 08:24:00,
2013-10-11 04:29:00,56.5,37.0,29.68,North,0,0.0,0.0,48,0.00,,---,0.00,VWS V13.01,2013-10-11 08:29:00,
2013-10-11 04:34:00,56.5,37.0,29.68,North,0,0.0,0.0,48,0.00,,---,0.00,VWS V13.01,2013-10-11 08:34:00,
2013-10-11 04:39:00,56.5,37.0,29.68,North,0,0.0,0.0,48,0.00,,---,0.00,VWS V13.01,2013-10-11 08:39:00,
2013-10-11 04:44:00,56.5,37.0,29.68,North,0,0.0,0.0,48,0.00,,---,0.00,VWS V13.01,2013-10-11 08:44:00,
2013-10-11 04:49:00,56.5,37.0,29.68,North,0,0.0,0.0,48,0.00,,---,0.00,VWS V13.01,2013-10-11 08:49:00,
2013-10-11 04:54:00,56.5,37.0,29.68,North,0,0.0,0.0,48,0.00,,---,0.00,VWS V13.01,2013-10-11 08:54:00,
2013-10-11 04:59:00,56.5,37.6,29.68,North,0,0.0,0.0,49,0.00,,---,0.00,VWS V13.01,2013-10-11 08:59:00,
2013-10-11 05:04:00,56.3,37.4,29.68,North,0,0.0,0.0,49,0.00,,---,0.00,VWS V13.01,2013-10-11 09:04:00,
2013-10-11 05:09:00,56.3,37.9,29.68,North,0,0.0,0.0,50,0.00,,---,0.00,VWS V13.01,2013-10-11 09:09:00,
2013-10-11 05:14:00,56.5,38.1,29.68,North,0,0.0,0.0,50,0.00,,---,0.00,VWS V13.01,2013-10-11 09:14:00,
2013-10-11 05:19:00,56.5,38.1,29.68,North,0,0.0,0.0,50,0.00,,---,0.00,VWS V13.01,2013-10-11 09:19:00,
2013-10-11 05:24:00,56.5,38.1,29.68,North,0,0.0,0.0,50,0.00,,---,0.00,VWS V13.01,2013-10-11 09:24:00,
2013-10-11 05:29:00,56.5,38.1,29.68,North,0,0.0,0.0,50,0.00,,---,0.00,VWS V13.01,2013-10-11 09:29:00,
2013-10-11 05:34:00,56.5,38.1,29.68,North,0,0.0,0.0,50,0.00,,---,0.00,VWS V13.01,2013-10-11 09:34:00,
2013-10-11 05:39:00,56.5,38.1,29.68,North,0,0.0,0.0,50,0.00,,---,0.00,VWS V13.01,2013-10-11 09:39:00,
2013-10-11 05:44:00,56.5,38.1,29.68,North,0,0.0,0.0,50,0.00,,---,0.00,VWS V13.01,2013-10-11 09:44:00,
2013-10-11 05:49:00,56.5,38.1,29.68,North,0,0.0,0.0,50,0.00,,---,0.00,VWS V13.01,2013-10-11 09:49:00,
2013-10-11 05:59:00,56.5,38.6,29.68,North,0,0.0,0.0,51,0.00,,---,0.00,VWS V13.01,2013-10-11 09:59:00,
2013-10-11 06:04:00,56.7,38.8,29.68,North,0,0.0,0.0,51,0.00,,---,0.00,VWS V13.01,2013-10-11 10:04:00,
2013-10-11 06:09:00,56.5,39.1,29.68,North,0,0.0,0.0,52,0.00,,---,0.00,VWS V13.01,2013-10-11 10:09:00,
2013-10-11 06:14:00,56.5,39.1,29.68,North,0,0.0,0.0,52,0.00,,---,0.00,VWS V13.01,2013-10-11 10:14:00,
2013-10-11 06:19:00,56.5,39.6,29.68,North,0,0.0,0.0,53,0.00,,---,0.00,VWS V13.01,2013-10-11 10:19:00,
2013-10-11 06:24:00,56.5,39.6,29.68,North,0,0.0,0.0,53,0.00,,---,0.00,VWS V13.01,2013-10-11 10:24:00,
2013-10-11 06:29:00,56.3,39.9,29.68,North,0,0.0,0.0,54,0.00,,---,0.00,VWS V13.01,2013-10-11 10:29:00,
2013-10-11 06:39:00,56.1,40.2,29.68,North,0,0.0,0.0,55,0.00,,---,0.00,VWS V13.01,2013-10-11 10:39:00,
2013-10-11 06:44:00,56.1,40.7,29.68,North,0,0.0,0.0,56,0.00,,---,0.00,VWS V13.01,2013-10-11 10:44:00,
2013-10-11 06:49:00,55.9,40.9,29.68,North,0,0.0,0.0,57,0.00,,---,0.00,VWS V13.01,2013-10-11 10:49:00,
2013-10-11 06:54:00,55.9,41.4,29.68,North,0,0.0,0.0,58,0.00,,---,0.00,VWS V13.01,2013-10-11 10:54:00,
2013-10-11 06:59:00,55.9,41.4,29.68,North,0,0.0,0.0,58,0.00,,---,0.00,VWS V13.01,2013-10-11 10:59:00,
2013-10-11 07:04:00,56.1,42.0,29.68,North,0,0.0,0.0,59,0.00,,---,0.00,VWS V13.01,2013-10-11 11:04:00,
2013-10-11 07:09:00,56.1,41.6,29.68,North,0,0.0,0.0,58,0.00,,---,0.00,VWS V13.01,2013-10-11 11:09:00,
2013-10-11 07:14:00,56.3,41.3,29.68,North,0,0.0,0.0,57,0.00,,---,0.00,VWS V13.01,2013-10-11 11:14:00,
2013-10-11 07:19:00,56.3,41.3,29.68,North,0,0.0,0.0,57,0.00,,---,0.00,VWS V13.01,2013-10-11 11:19:00,
2013-10-11 07:24:00,56.3,40.8,29.68,North,0,0.0,0.0,56,0.00,,---,0.00,VWS V13.01,2013-10-11 11:24:00,
2013-10-11 07:29:00,56.5,41.0,29.68,North,0,0.0,0.0,56,0.00,,---,0.00,VWS V13.01,2013-10-11 11:29:00,
2013-10-11 07:34:00,56.5,40.5,29.68,North,0,0.0,0.0,55,0.00,,---,0.00,VWS V13.01,2013-10-11 11:34:00,
2013-10-11 07:39:00,56.5,41.0,29.68,North,0,0.0,0.0,56,0.00,,---,0.00,VWS V13.01,2013-10-11 11:39:00,
2013-10-11 07:44:00,56.5,40.5,29.68,North,0,0.0,0.0,55,0.00,,---,0.00,VWS V13.01,2013-10-11 11:44:00,
2013-10-11 07:49:00,56.7,40.7,29.68,North,0,0.0,0.0,55,0.00,,---,0.00,VWS V13.01,2013-10-11 11:49:00,
2013-10-11 07:54:00,56.7,40.2,29.68,North,0,0.0,0.0,54,0.00,,---,0.00,VWS V13.01,2013-10-11 11:54:00,
2013-10-11 07:59:00,56.8,39.9,29.68,North,0,0.0,0.0,53,0.00,,---,0.00,VWS V13.01,2013-10-11 11:59:00,
2013-10-11 08:04:00,57.0,39.6,29.68,North,0,0.0,0.0,52,0.00,,---,0.00,VWS V13.01,2013-10-11 12:04:00,
2013-10-11 08:09:00,57.2,38.8,29.68,North,0,0.0,0.0,50,0.00,,---,0.00,VWS V13.01,2013-10-11 12:09:00,
2013-10-11 08:14:00,57.2,38.2,29.68,North,0,0.0,0.0,49,0.00,,---,0.00,VWS V13.01,2013-10-11 12:14:00,
2013-10-11 08:19:00,57.6,38.6,29.68,North,0,0.0,0.0,49,0.00,,---,0.00,VWS V13.01,2013-10-11 12:19:00,
2013-10-11 08:24:00,57.7,37.7,29.68,North,0,0.0,0.0,47,0.00,,---,0.00,VWS V13.01,2013-10-11 12:24:00,
2013-10-11 08:29:00,57.6,37.5,29.68,North,0,0.0,0.0,47,0.00,,---,0.00,VWS V13.01,2013-10-11 12:29:00,
2013-10-11 08:34:00,57.7,37.7,29.68,North,0,0.0,0.0,47,0.00,,---,0.00,VWS V13.01,2013-10-11 12:34:00,
2013-10-11 08:39:00,57.7,37.7,29.68,North,0,0.0,0.0,47,0.00,,---,0.00,VWS V13.01,2013-10-11 12:39:00,
2013-10-11 08:44:00,57.7,37.7,29.68,North,0,0.0,0.0,47,0.00,,---,0.00,VWS V13.01,2013-10-11 12:44:00,
2013-10-11 08:49:00,57.9,37.8,29.68,North,0,0.0,0.0,47,0.00,,---,0.00,VWS V13.01,2013-10-11 12:49:00,
2013-10-11 08:54:00,58.3,38.2,29.68,North,0,0.0,0.0,47,0.00,,---,0.00,VWS V13.01,2013-10-11 12:54:00,
2013-10-11 08:59:00,58.5,37.8,29.68,North,0,0.0,0.0,46,0.00,,---,0.00,VWS V13.01,2013-10-11 12:59:00,
2013-10-11 09:04:00,58.8,37.5,29.68,North,0,0.0,0.0,45,0.00,,---,0.00,VWS V13.01,2013-10-11 13:04:00,
2013-10-11 09:09:00,58.8,37.5,29.68,North,0,0.0,0.0,45,0.00,,---,0.00,VWS V13.01,2013-10-11 13:09:00,
2013-10-11 09:14:00,58.8,37.5,29.68,North,0,0.0,0.0,45,0.00,,---,0.00,VWS V13.01,2013-10-11 13:14:00,
2013-10-11 09:24:00,59.4,37.5,29.68,North,0,0.0,0.0,44,0.00,,---,0.00,VWS V13.01,2013-10-11 13:24:00,
2013-10-11 09:29:00,59.4,36.9,29.68,North,0,0.0,0.0,43,0.00,,---,0.00,VWS V13.01,2013-10-11 13:29:00,
2013-10-11 09:34:00,59.7,36.6,29.68,North,0,0.0,0.0,42,0.00,,---,0.00,VWS V13.01,2013-10-11 13:34:00,
2013-10-11 09:44:00,60.1,36.3,29.68,West,280,8.1,8.1,41,0.00,,---,0.00,VWS V13.01,2013-10-11 13:44:00,
2013-10-11 09:49:00,60.1,36.3,29.68,WNW,291,3.1,8.3,41,0.00,,---,0.00,VWS V13.01,2013-10-11 13:49:00,
2013-10-11 09:54:00,60.3,37.1,29.68,West,277,5.4,8.7,42,0.00,,---,0.00,VWS V13.01,2013-10-11 13:54:00,
2013-10-11 09:59:00,60.4,37.9,29.68,SW,228,3.6,7.6,43,0.00,,---,0.00,VWS V13.01,2013-10-11 13:59:00,
2013-10-11 10:04:00,60.4,37.3,29.68,WNW,285,3.6,6.3,42,0.00,,---,0.00,VWS V13.01,2013-10-11 14:04:00,
2013-10-11 10:09:00,61.0,37.1,29.68,South,189,2.2,5.8,41,0.00,,---,0.00,VWS V13.01,2013-10-11 14:09:00,
2013-10-11 10:19:00,61.5,36.3,29.68,SW,225,7.6,8.7,39,0.00,,---,0.00,VWS V13.01,2013-10-11 14:19:00,
2013-10-11 10:29:00,61.9,36.7,29.71,WNW,293,4.0,5.4,39,0.00,,---,0.00,VWS V13.01,2013-10-11 14:29:00,
2013-10-11 10:34:00,62.1,36.8,29.71,NNW,332,4.0,7.6,39,0.00,,---,0.00,VWS V13.01,2013-10-11 14:34:00,
2013-10-11 10:39:00,62.1,36.8,29.71,West,273,4.9,8.3,39,0.00,,---,0.00,VWS V13.01,2013-10-11 14:39:00,
2013-10-11 10:44:00,62.2,37.0,29.68,WNW,298,2.7,8.7,39,0.00,,---,0.00,VWS V13.01,2013-10-11 14:44:00,
2013-10-11 10:54:00,63.0,37.0,29.68,NW,310,3.1,8.1,38,0.00,,---,0.00,VWS V13.01,2013-10-11 14:54:00,
2013-10-11 10:59:00,62.8,36.8,29.71,NW,310,5.8,12.3,38,0.00,,---,0.00,VWS V13.01,2013-10-11 14:59:00,
2013-10-11 11:04:00,63.1,37.1,29.71,WNW,296,3.1,7.6,38,0.00,,---,0.00,VWS V13.01,2013-10-11 15:04:00,
2013-10-11 11:14:00,63.1,37.1,29.71,NNW,344,3.6,7.2,38,0.00,,---,0.00,VWS V13.01,2013-10-11 15:14:00,
2013-10-11 11:19:00,63.3,36.6,29.71,West,276,2.7,8.3,37,0.00,,---,0.00,VWS V13.01,2013-10-11 15:19:00,
2013-10-11 11:24:00,63.5,37.5,29.71,NW,322,0.0,4.9,38,0.00,,---,0.00,VWS V13.01,2013-10-11 15:24:00,
2013-10-11 11:29:00,63.7,37.0,29.71,WNW,294,5.4,9.2,37,0.00,,---,0.00,VWS V13.01,2013-10-11 15:29:00,
2013-10-11 11:34:00,63.5,36.8,29.71,NNW,341,2.7,7.6,37,0.00,,---,0.00,VWS V13.01,2013-10-11 15:34:00,
2013-10-11 11:39:00,63.7,37.0,29.71,West,274,4.0,8.7,37,0.00,,---,0.00,VWS V13.01,2013-10-11 15:39:00,
2013-10-11 11:44:00,63.5,36.8,29.68,WNW,286,5.4,11.0,37,0.00,,---,0.00,VWS V13.01,2013-10-11 15:44:00,
2013-10-11 11:54:00,63.9,37.1,29.68,WNW,286,5.8,8.3,37,0.00,,---,0.00,VWS V13.01,2013-10-11 15:54:00,
2013-10-11 11:59:00,64.2,37.4,29.71,NW,317,4.5,5.8,37,0.00,,---,0.00,VWS V13.01,2013-10-11 15:59:00,
2013-10-11 12:04:00,64.2,38.1,29.71,North,5,0.0,6.3,38,0.00,,---,0.00,VWS V13.01,2013-10-11 16:04:00,
2013-10-11 12:14:00,64.4,37.6,29.71,NNW,331,5.4,6.7,37,0.00,,---,0.00,VWS V13.01,2013-10-11 16:14:00,
2013-10-11 12:19:00,64.4,38.3,29.71,NW,319,0.0,10.1,38,0.00,,---,0.00,VWS V13.01,2013-10-11 16:19:00,
2013-10-11 12:29:00,64.9,38.1,29.71,NNW,341,2.2,4.9,37,0.00,,---,0.00,VWS V13.01,2013-10-11 16:29:00,
2013-10-11 12:34:00,64.6,37.8,29.71,NW,307,4.9,6.3,37,0.00,,---,0.00,VWS V13.01,2013-10-11 16:34:00,
2013-10-11 12:39:00,64.8,37.9,29.71,NW,306,10.1,10.1,37,0.00,,---,0.00,VWS V13.01,2013-10-11 16:39:00,
2013-10-11 12:44:00,64.8,37.9,29.71,WNW,289,3.1,10.1,37,0.00,,---,0.00,VWS V13.01,2013-10-11 16:44:00,
2013-10-11 12:49:00,64.9,38.1,29.71,NNW,341,4.0,8.3,37,0.00,,---,0.00,VWS V13.01,2013-10-11 16:49:00,
2013-10-11 12:54:00,64.9,39.4,29.71,NNW,335,3.6,8.3,39,0.00,,---,0.00,VWS V13.01,2013-10-11 16:54:00,
2013-10-11 12:59:00,65.3,39.1,29.68,West,259,2.7,5.4,38,0.00,,---,0.00,VWS V13.01,2013-10-11 16:59:00,
2013-10-11 13:09:00,65.1,38.2,29.68,NNW,327,4.9,7.6,37,0.00,,---,0.00,VWS V13.01,2013-10-11 17:09:00,
2013-10-11 13:14:00,65.5,39.2,29.68,NNW,337,3.1,6.7,38,0.00,,---,0.00,VWS V13.01,2013-10-11 17:14:00,
2013-10-11 13:19:00,65.5,38.5,29.68,WSW,243,2.7,8.7,37,0.00,,---,0.00,VWS V13.01,2013-10-11 17:19:00,
2013-10-11 13:24:00,65.7,38.0,29.68,WNW,288,6.3,8.1,36,0.00,,---,0.00,VWS V13.01,2013-10-11 17:24:00,
2013-10-11 13:29:00,66.2,38.5,29.68,WNW,282,2.7,7.2,36,0.00,,---,0.00,VWS V13.01,2013-10-11 17:29:00,
2013-10-11 13:34:00,66.4,37.2,29.68,NW,319,4.9,10.5,34,0.00,,---,0.00,VWS V13.01,2013-10-11 17:34:00,
2013-10-11 13:39:00,66.6,38.1,29.68,NW,322,4.0,8.1,35,0.00,,---,0.00,VWS V13.01,2013-10-11 17:39:00,
2013-10-11 13:44:00,66.7,37.5,29.68,NW,321,2.7,8.3,34,0.00,,---,0.00,VWS V13.01,2013-10-11 17:44:00,
2013-10-11 13:49:00,66.9,38.4,29.68,North,350,2.2,6.3,35,0.00,,---,0.00,VWS V13.01,2013-10-11 17:49:00,
2013-10-11 13:54:00,66.9,37.7,29.68,NNW,328,3.6,10.1,34,0.00,,---,0.00,VWS V13.01,2013-10-11 17:54:00,
2013-10-11 13:59:00,67.1,37.8,29.68,NW,319,4.0,8.7,34,0.00,,---,0.00,VWS V13.01,2013-10-11 17:59:00,
2013-10-11 14:04:00,67.3,38.0,29.68,NW,312,3.6,10.1,34,0.00,,---,0.00,VWS V13.01,2013-10-11 18:04:00,
2013-10-11 14:09:00,67.5,38.1,29.68,NNW,346,4.0,6.3,34,0.00,,---,0.00,VWS V13.01,2013-10-11 18:09:00,
2013-10-11 14:14:00,67.5,38.1,29.68,WNW,295,7.6,12.8,34,0.00,,---,0.00,VWS V13.01,2013-10-11 18:14:00,
2013-10-11 14:19:00,67.6,37.5,29.68,NNE,18,5.4,11.0,33,0.00,,---,0.00,VWS V13.01,2013-10-11 18:19:00,
2013-10-11 14:24:00,67.8,37.7,29.68,NW,324,5.8,11.0,33,0.00,,---,0.00,VWS V13.01,2013-10-11 18:24:00,
2013-10-11 14:29:00,68.2,38.0,29.68,NNW,332,3.1,9.2,33,0.00,,---,0.00,VWS V13.01,2013-10-11 18:29:00,
2013-10-11 14:34:00,68.2,37.2,29.68,NNW,327,8.7,8.7,32,0.00,,---,0.00,VWS V13.01,2013-10-11 18:34:00,
2013-10-11 14:44:00,68.2,38.0,29.68,North,0,6.3,8.3,33,0.00,,---,0.00,VWS V13.01,2013-10-11 18:44:00,
2013-10-11 14:49:00,68.2,37.2,29.68,NW,321,6.3,10.1,32,0.00,,---,0.00,VWS V13.01,2013-10-11 18:49:00,
2013-10-11 14:54:00,68.2,38.0,29.68,NW,325,3.6,9.6,33,0.00,,---,0.00,VWS V13.01,2013-10-11 18:54:00,
2013-10-11 14:59:00,68.4,38.2,29.68,WNW,285,0.0,7.6,33,0.00,,---,0.00,VWS V13.01,2013-10-11 18:59:00,
2013-10-11 15:04:00,68.4,38.2,29.68,NNW,335,4.0,8.1,33,0.00,,---,0.00,VWS V13.01,2013-10-11 19:04:00,
2013-10-11 15:09:00,68.4,38.2,29.68,NW,311,5.8,6.3,33,0.00,,---,0.00,VWS V13.01,2013-10-11 19:09:00,
2013-10-11 15:14:00,68.4,37.4,29.68,NNW,328,6.3,8.3,32,0.00,,---,0.00,VWS V13.01,2013-10-11 19:14:00,
2013-10-11 15:19:00,68.4,37.4,29.68,WNW,303,4.0,8.7,32,0.00,,---,0.00,VWS V13.01,2013-10-11 19:19:00,
2013-10-11 15:24:00,68.2,37.2,29.68,NW,307,8.1,8.3,32,0.00,,---,0.00,VWS V13.01,2013-10-11 19:24:00,
2013-10-11 15:29:00,68.5,37.5,29.68,NNW,341,4.0,8.1,32,0.00,,---,0.00,VWS V13.01,2013-10-11 19:29:00,
2013-10-11 15:34:00,68.4,37.4,29.68,WNW,290,2.7,8.3,32,0.00,,---,0.00,VWS V13.01,2013-10-11 19:34:00,
2013-10-11 15:39:00,68.5,38.3,29.68,NNW,338,4.9,8.7,33,0.00,,---,0.00,VWS V13.01,2013-10-11 19:39:00,
2013-10-11 15:49:00,68.4,38.2,29.68,West,275,3.1,13.2,33,0.00,,---,0.00,VWS V13.01,2013-10-11 19:49:00,
2013-10-11 15:54:00,68.4,38.2,29.68,NNW,334,4.9,8.3,33,0.00,,---,0.00,VWS V13.01,2013-10-11 19:54:00,
2013-10-11 15:59:00,68.4,38.2,29.68,NW,306,2.7,5.8,33,0.00,,---,0.00,VWS V13.01,2013-10-11 19:59:00,
2013-10-11 16:04:00,68.4,38.2,29.68,NNW,340,2.7,8.3,33,0.00,,---,0.00,VWS V13.01,2013-10-11 20:04:00,
2013-10-11 16:09:00,68.5,38.3,29.68,NW,305,5.8,7.6,33,0.00,,---,0.00,VWS V13.01,2013-10-11 20:09:00,
2013-10-11 16:14:00,68.5,38.3,29.68,NNW,329,3.6,5.8,33,0.00,,---,0.00,VWS V13.01,2013-10-11 20:14:00,
2013-10-11 16:19:00,68.5,38.3,29.68,WNW,287,4.5,7.2,33,0.00,,---,0.00,VWS V13.01,2013-10-11 20:19:00,
2013-10-11 16:24:00,68.5,38.3,29.68,NW,313,3.1,5.8,33,0.00,,---,0.00,VWS V13.01,2013-10-11 20:24:00,
2013-10-11 16:29:00,68.4,38.2,29.68,WNW,293,2.7,8.1,33,0.00,,---,0.00,VWS V13.01,2013-10-11 20:29:00,
2013-10-11 16:34:00,68.4,38.2,29.68,NNW,346,5.8,7.6,33,0.00,,---,0.00,VWS V13.01,2013-10-11 20:34:00,
2013-10-11 16:39:00,68.4,38.9,29.68,NW,310,5.4,5.8,34,0.00,,---,0.00,VWS V13.01,2013-10-11 20:39:00,
2013-10-11 16:49:00,68.2,38.8,29.68,NW,310,2.7,6.3,34,0.00,,---,0.00,VWS V13.01,2013-10-11 20:49:00,
2013-10-11 16:54:00,68.2,38.8,29.68,NNW,331,3.1,5.4,34,0.00,,---,0.00,VWS V13.01,2013-10-11 20:54:00,
2013-10-11 16:59:00,68.2,38.8,29.68,WNW,286,3.1,6.3,34,0.00,,---,0.00,VWS V13.01,2013-10-11 20:59:00,
2013-10-11 17:04:00,68.0,38.6,29.68,WNW,301,3.1,5.8,34,0.00,,---,0.00,VWS V13.01,2013-10-11 21:04:00,
2013-10-11 17:09:00,68.0,38.6,29.68,WNW,295,4.9,6.7,34,0.00,,---,0.00,VWS V13.01,2013-10-11 21:09:00,
2013-10-11 17:14:00,67.8,38.5,29.68,WNW,293,7.6,7.6,34,0.00,,---,0.00,VWS V13.01,2013-10-11 21:14:00,
2013-10-11 17:19:00,67.8,39.2,29.68,NW,310,3.1,7.6,35,0.00,,---,0.00,VWS V13.01,2013-10-11 21:19:00,
2013-10-11 17:24:00,67.8,39.2,29.68,NNW,337,2.7,6.3,35,0.00,,---,0.00,VWS V13.01,2013-10-11 21:24:00,
2013-10-11 17:29:00,67.8,39.2,29.68,WSW,254,0.0,3.6,35,0.00,,---,0.00,VWS V13.01,2013-10-11 21:29:00,
2013-10-11 17:34:00,67.6,39.0,29.68,West,267,4.9,5.8,35,0.00,,---,0.00,VWS V13.01,2013-10-11 21:34:00,
2013-10-11 17:39:00,67.5,38.9,29.68,NW,315,3.1,6.3,35,0.00,,---,0.00,VWS V13.01,2013-10-11 21:39:00,
2013-10-11 17:44:00,67.5,38.9,29.68,NW,310,3.6,4.9,35,0.00,,---,0.00,VWS V13.01,2013-10-11 21:44:00,
2013-10-11 17:49:00,67.3,38.7,29.68,WNW,301,2.2,5.8,35,0.00,,---,0.00,VWS V13.01,2013-10-11 21:49:00,
2013-10-11 17:54:00,67.1,38.6,29.68,WNW,293,0.0,4.0,35,0.00,,---,0.00,VWS V13.01,2013-10-11 21:54:00,
2013-10-11 17:59:00,66.9,39.1,29.68,WNW,291,5.4,5.4,36,0.00,,---,0.00,VWS V13.01,2013-10-11 21:59:00,
2013-10-11 18:04:00,66.9,38.4,29.68,WNW,283,3.6,5.4,35,0.00,,---,0.00,VWS V13.01,2013-10-11 22:04:00,
2013-10-11 18:09:00,66.7,38.2,29.68,WNW,290,4.5,4.9,35,0.00,,---,0.00,VWS V13.01,2013-10-11 22:09:00,
2013-10-11 18:14:00,66.7,39.0,29.68,WNW,291,0.0,4.5,36,0.00,,---,0.00,VWS V13.01,2013-10-11 22:14:00,
2013-10-11 18:19:00,66.6,38.8,29.68,WNW,291,0.0,0.0,36,0.00,,---,0.00,VWS V13.01,2013-10-11 22:19:00,
2013-10-11 18:24:00,66.6,38.8,29.68,WNW,291,0.0,0.0,36,0.00,,---,0.00,VWS V13.01,2013-10-11 22:24:00,
2013-10-11 18:34:00,66.2,39.9,29.71,WNW,291,0.0,0.0,38,0.00,,---,0.00,VWS V13.01,2013-10-11 22:34:00,
2013-10-11 18:39:00,66.0,41.0,29.71,WNW,291,0.0,0.0,40,0.00,,---,0.00,VWS V13.01,2013-10-11 22:39:00,
2013-10-11 18:44:00,65.8,40.9,29.71,WNW,291,0.0,0.0,40,0.00,,---,0.00,VWS V13.01,2013-10-11 22:44:00,
2013-10-11 18:49:00,65.7,40.7,29.71,WNW,291,0.0,0.0,40,0.00,,---,0.00,VWS V13.01,2013-10-11 22:49:00,
2013-10-11 18:54:00,65.5,41.2,29.71,WNW,291,0.0,0.0,41,0.00,,---,0.00,VWS V13.01,2013-10-11 22:54:00,
2013-10-11 18:59:00,65.5,41.8,29.71,WNW,291,0.0,0.0,42,0.00,,---,0.00,VWS V13.01,2013-10-11 22:59:00,
2013-10-11 19:04:00,65.3,42.2,29.71,WNW,291,0.0,0.0,43,0.00,,---,0.00,VWS V13.01,2013-10-11 23:04:00,
2013-10-11 19:09:00,65.1,42.1,29.71,WNW,291,0.0,0.0,43,0.00,,---,0.00,VWS V13.01,2013-10-11 23:09:00,
2013-10-11 19:14:00,64.9,42.5,29.71,WNW,291,0.0,0.0,44,0.00,,---,0.00,VWS V13.01,2013-10-11 23:14:00,
2013-10-11 19:19:00,64.8,42.4,29.71,WNW,291,0.0,0.0,44,0.00,,---,0.00,VWS V13.01,2013-10-11 23:19:00,
2013-10-11 19:24:00,64.8,42.4,29.71,WNW,291,0.0,0.0,44,0.00,,---,0.00,VWS V13.01,2013-10-11 23:24:00,
2013-10-11 19:29:00,64.8,43.0,29.71,WNW,291,0.0,0.0,45,0.00,,---,0.00,VWS V13.01,2013-10-11 23:29:00,
2013-10-11 19:34:00,64.8,43.0,29.71,WNW,291,0.0,2.2,45,0.00,,---,0.00,VWS V13.01,2013-10-11 23:34:00,
2013-10-11 19:39:00,64.8,43.0,29.71,WNW,291,0.0,0.0,45,0.00,,---,0.00,VWS V13.01,2013-10-11 23:39:00,
2013-10-11 19:44:00,64.8,43.0,29.71,WNW,291,0.0,0.0,45,0.00,,---,0.00,VWS V13.01,2013-10-11 23:44:00,
2013-10-11 19:49:00,64.8,43.0,29.71,WNW,291,0.0,0.0,45,0.00,,---,0.00,VWS V13.01,2013-10-11 23:49:00,
2013-10-11 19:59:00,64.8,43.0,29.74,WNW,291,0.0,0.0,45,0.00,,---,0.00,VWS V13.01,2013-10-11 23:59:00,
2013-10-11 20:09:00,64.6,43.4,29.74,WNW,291,0.0,0.0,46,0.00,,---,0.00,VWS V13.01,2013-10-12 00:09:00,
2013-10-11 20:14:00,64.6,43.4,29.74,WNW,291,0.0,0.0,46,0.00,,---,0.00,VWS V13.01,2013-10-12 00:14:00,
2013-10-11 20:19:00,64.4,43.2,29.74,WNW,291,0.0,0.0,46,0.00,,---,0.00,VWS V13.01,2013-10-12 00:19:00,
2013-10-11 20:24:00,64.4,43.2,29.74,WNW,291,0.0,0.0,46,0.00,,---,0.00,VWS V13.01,2013-10-12 00:24:00,
2013-10-11 20:29:00,64.2,43.6,29.74,WNW,291,0.0,0.0,47,0.00,,---,0.00,VWS V13.01,2013-10-12 00:29:00,
2013-10-11 20:34:00,64.2,43.6,29.74,WNW,291,0.0,0.0,47,0.00,,---,0.00,VWS V13.01,2013-10-12 00:34:00,
2013-10-11 20:39:00,64.2,44.7,29.74,WNW,291,0.0,0.0,49,0.00,,---,0.00,VWS V13.01,2013-10-12 00:39:00,
2013-10-11 20:44:00,64.0,44.5,29.74,WNW,291,0.0,0.0,49,0.00,,---,0.00,VWS V13.01,2013-10-12 00:44:00,
2013-10-11 20:49:00,63.9,44.9,29.74,WNW,291,0.0,0.0,50,0.00,,---,0.00,VWS V13.01,2013-10-12 00:49:00,
2013-10-11 20:54:00,63.7,44.7,29.74,WSW,254,3.6,3.6,50,0.00,,---,0.00,VWS V13.01,2013-10-12 00:54:00,
2013-10-11 20:59:00,63.5,44.5,29.74,WSW,254,0.0,3.6,50,0.00,,---,0.00,VWS V13.01,2013-10-12 00:59:00,
2013-10-11 21:04:00,63.5,44.5,29.74,WSW,254,0.0,2.2,50,0.00,,---,0.00,VWS V13.01,2013-10-12 01:04:00,
2013-10-11 21:09:00,63.3,44.4,29.74,WNW,294,0.0,3.6,50,0.00,,---,0.00,VWS V13.01,2013-10-12 01:09:00,
2013-10-11 21:14:00,63.1,44.2,29.74,WNW,294,0.0,4.0,50,0.00,,---,0.00,VWS V13.01,2013-10-12 01:14:00,
2013-10-11 21:19:00,63.1,44.2,29.74,WNW,294,0.0,3.1,50,0.00,,---,0.00,VWS V13.01,2013-10-12 01:19:00,
2013-10-11 21:24:00,63.1,44.2,29.74,WNW,294,0.0,2.7,50,0.00,,---,0.00,VWS V13.01,2013-10-12 01:24:00,
2013-10-11 21:29:00,63.1,43.7,29.74,WNW,294,0.0,3.6,49,0.00,,---,0.00,VWS V13.01,2013-10-12 01:29:00,
2013-10-11 21:34:00,63.1,43.7,29.74,WNW,294,0.0,0.0,49,0.00,,---,0.00,VWS V13.01,2013-10-12 01:34:00,
2013-10-11 21:39:00,63.1,43.7,29.74,WNW,294,0.0,0.0,49,0.00,,---,0.00,VWS V13.01,2013-10-12 01:39:00,
2013-10-11 21:44:00,63.1,43.2,29.74,WNW,293,0.0,4.0,48,0.00,,---,0.00,VWS V13.01,2013-10-12 01:44:00,
2013-10-11 21:49:00,63.0,43.0,29.74,WNW,293,0.0,0.0,48,0.00,,---,0.00,VWS V13.01,2013-10-12 01:49:00,
2013-10-11 21:54:00,62.8,42.8,29.74,WNW,293,0.0,0.0,48,0.00,,---,0.00,VWS V13.01,2013-10-12 01:54:00,
2013-10-11 21:59:00,62.8,43.4,29.74,WNW,293,0.0,0.0,49,0.00,,---,0.00,VWS V13.01,2013-10-12 01:59:00,
2013-10-11 22:04:00,62.8,43.4,29.74,WNW,293,0.0,0.0,49,0.00,,---,0.00,VWS V13.01,2013-10-12 02:04:00,
2013-10-11 22:09:00,62.8,43.4,29.74,WNW,293,0.0,3.1,49,0.00,,---,0.00,VWS V13.01,2013-10-12 02:09:00,
2013-10-11 22:14:00,62.6,42.7,29.74,WNW,293,0.0,0.0,48,0.00,,---,0.00,VWS V13.01,2013-10-12 02:14:00,
2013-10-11 22:19:00,62.6,42.1,29.74,West,274,0.0,3.6,47,0.00,,---,0.00,VWS V13.01,2013-10-12 02:19:00,
2013-10-11 22:24:00,62.4,41.4,29.74,West,274,2.7,4.0,46,0.00,,---,0.00,VWS V13.01,2013-10-12 02:24:00,
2013-10-11 22:29:00,62.6,41.5,29.74,West,274,3.1,3.1,46,0.00,,---,0.00,VWS V13.01,2013-10-12 02:29:00,
2013-10-11 22:34:00,62.4,41.4,29.74,West,274,0.0,3.1,46,0.00,,---,0.00,VWS V13.01,2013-10-12 02:34:00,
2013-10-11 22:39:00,62.4,41.4,29.74,West,274,0.0,2.7,46,0.00,,---,0.00,VWS V13.01,2013-10-12 02:39:00,
2013-10-11 22:44:00,62.4,41.4,29.74,West,274,0.0,3.1,46,0.00,,---,0.00,VWS V13.01,2013-10-12 02:44:00,
2013-10-11 22:49:00,62.2,41.2,29.74,West,274,0.0,2.2,46,0.00,,---,0.00,VWS V13.01,2013-10-12 02:49:00,
2013-10-11 22:54:00,62.2,41.2,29.74,West,274,0.0,2.2,46,0.00,,---,0.00,VWS V13.01,2013-10-12 02:54:00,
2013-10-11 22:59:00,62.2,41.2,29.74,West,274,2.2,3.1,46,0.00,,---,0.00,VWS V13.01,2013-10-12 02:59:00,
2013-10-11 23:04:00,62.1,40.5,29.74,West,274,2.2,2.7,45,0.00,,---,0.00,VWS V13.01,2013-10-12 03:04:00,
2013-10-11 23:09:00,62.1,39.9,29.74,West,263,3.1,4.0,44,0.00,,---,0.00,VWS V13.01,2013-10-12 03:09:00,
2013-10-11 23:14:00,61.9,39.8,29.74,West,272,0.0,4.0,44,0.00,,---,0.00,VWS V13.01,2013-10-12 03:14:00,
2013-10-11 23:19:00,61.7,39.0,29.74,WSW,258,4.9,4.9,43,0.00,,---,0.00,VWS V13.01,2013-10-12 03:19:00,
2013-10-11 23:24:00,61.7,37.8,29.74,West,278,0.0,5.4,41,0.00,,---,0.00,VWS V13.01,2013-10-12 03:24:00,
2013-10-11 23:34:00,61.7,37.2,29.74,West,281,0.0,3.6,40,0.00,,---,0.00,VWS V13.01,2013-10-12 03:34:00,
2013-10-11 23:44:00,61.3,36.2,29.74,WNW,284,2.7,3.1,39,0.00,,---,0.00,VWS V13.01,2013-10-12 03:44:00,
2013-10-11 23:49:00,61.3,35.5,29.74,WSW,249,3.1,4.0,38,0.00,,---,0.00,VWS V13.01,2013-10-12 03:49:00,
2013-10-11 23:54:00,61.0,34.5,29.74,WNW,282,3.1,4.9,37,0.00,,---,0.00,VWS V13.01,2013-10-12 03:54:00,
2013-10-11 23:59:00,61.0,34.5,29.74,West,267,0.0,4.0,37,0.00,,---,0.00,VWS V13.01,2013-10-12 03:59:00,